map of CFB home
Great Circle Mapper logo
CFB - Airport
Location
City:  Cabo Frio, Rio de Janeiro, Brazil
Name:Cabo Frio International Airport
ICAO / IATA:SBCB / CFB

Details
Type:Airport (Aerodrome, Airfield)
Use:International (customs port of entry)
Latitude:2255'18"S (-22.921680)
Longitude:4204'27"W (-42.074268)
Datum:WGS 1984
Elevation:14 ft (4 m)
Variation:22.89W (WMM2015 magnetic declination)
-0.09 annual change
Runways:1
Longest:5577 × 98 ft (1700 × 30 m), paved

Time
Time Zone:UTC-3 (DST-2)
Local Time:

Weather
METAR:SBCB 262100Z 06008KT CAVOK 26/22 Q1012
TAF:SBCB 262115Z 2700/2724 08010KT 9999 FEW020 TN22/2708Z TX32/2716Z
BECMG 2703/2705 00000KT CAVOK
BECMG 2708/2710 04007KT
BECMG 2713/2715 1001 5KT
BECMG 2719/2721 11007KT
RMK PHB

Related Locations
Nearby:
Farthest:IWO: 12192 mi / 19621 km
Iwo Jima [Iwo Jima AB], Iwo Jima Island, JP

Find:

   beyond  
but within

Other Information
Maps:
NOTAMs:
Links:
Sources:

  
flag of Brazil
flag of Rio de Janeiro
  

Sectional Chart

Flight Planning
at skyvector.com

Satellite Image

Google Maps Satellite View

 

Copyright © 2004-2015 Karl L. Swartz. All rights reserved.
The Great Circle Mapper name and logo are trademarks of the Great Circle Mapper.
All other trademarks mentioned herein belong to their respective owners.
Please see credits for attibutions and further copyright information.

  Follow gcmap on Facebook Follow gcmap on Twitter Follow gcmap on Google+

hCard Microformat

Geo Microformat